Zurück zum Katalog

DGS 2-01

AktivWissenschaftSSO
NORAD 65260·PAYLOAD·🇨🇳 China
Dieser Satellitenname wurde noch nicht durch offizielle Quellen bestätigt.

Gestartet Aug 19, 2025 von Jiuquan Satellite Launch Center

Loading…

Nächste Überflüge (nächste 24 Stunden)

TLE

AktuellSource: Space-Track

Epoche: Sep 14, 2026, 14:01 UTC

1 65260U 25180B   26257.58452609  .00002918  00000-0  15499-3 0  9997
2 65260  97.5389  24.0740 0014663  20.2482 339.9329 15.16023214 59206

Verfolge DGS 2-01 in Echtzeit mit AllMySat

Download on the App Store